Radiation Dose at Monitoring Post of Fukushima Daini Nuclear Power Station
Date,Time,MP-1(microSv/h),MP-2(microSv/h),MP-3(microSv/h),MP-4(microSv/h),MP-5(microSv/h),MP-6(microSv/h),MP-7(microSv/h),Wind Direction,Wind Velocity(m/s),Rain
2016/07/31,00:00,0.433,0.256,0.457,0.412,0.375,0.209,0.179,south-southwest,3.5,No
2016/07/31,00:10,0.432,0.254,0.451,0.410,0.381,0.208,0.180,south-southwest,2.8,No
2016/07/31,00:20,0.431,0.257,0.454,0.413,0.378,0.210,0.181,south-southwest,2.8,No
2016/07/31,00:30,0.433,0.255,0.455,0.411,0.377,0.209,0.180,south-southwest,2.7,No
2016/07/31,00:40,0.428,0.255,0.453,0.411,0.379,0.210,0.181,south-southwest,2.8,No
2016/07/31,00:50,0.433,0.257,0.453,0.416,0.377,0.209,0.181,south-southwest,2.0,No
2016/07/31,01:00,0.433,0.256,0.457,0.411,0.378,0.209,0.180,south,0.7,No
2016/07/31,01:10,0.428,0.255,0.451,0.413,0.378,0.209,0.181,-,CALM,No
2016/07/31,01:20,0.432,0.255,0.456,0.414,0.376,0.209,0.180,south-southwest,1.1,No
2016/07/31,01:30,0.432,0.255,0.453,0.409,0.378,0.208,0.180,southwest,1.6,No
2016/07/31,01:40,0.430,0.257,0.450,0.414,0.380,0.211,0.181,south-southwest,1.2,No
2016/07/31,01:50,0.433,0.254,0.454,0.412,0.376,0.209,0.180,southwest,1.3,No
2016/07/31,02:00,0.430,0.257,0.451,0.411,0.379,0.209,0.181,-,CALM,No
2016/07/31,02:10,0.431,0.256,0.451,0.414,0.378,0.208,0.180,southwest,0.7,No
2016/07/31,02:20,0.434,0.255,0.455,0.411,0.376,0.208,0.181,southwest,0.8,No
2016/07/31,02:30,0.430,0.256,0.452,0.413,0.380,0.209,0.181,-,CALM,No
2016/07/31,02:40,0.434,0.255,0.453,0.413,0.377,0.208,0.180,-,CALM,No
2016/07/31,02:50,0.431,0.256,0.456,0.409,0.380,0.210,0.181,north,0.5,No
2016/07/31,03:00,0.430,0.256,0.453,0.414,0.378,0.208,0.180,north,0.8,No
2016/07/31,03:10,0.435,0.255,0.456,0.412,0.376,0.209,0.181,north,0.9,No
2016/07/31,03:20,0.431,0.257,0.454,0.411,0.380,0.209,0.180,northwest,0.8,No
2016/07/31,03:30,0.432,0.256,0.452,0.416,0.378,0.209,0.181,north,1.2,No
2016/07/31,03:40,0.433,0.256,0.455,0.410,0.377,0.209,0.181,north,1.8,No
2016/07/31,03:50,0.429,0.256,0.453,0.413,0.378,0.209,0.180,north,2.2,No
2016/07/31,04:00,0.434,0.256,0.455,0.414,0.376,0.209,0.182,north-northeast,1.6,No
2016/07/31,04:10,0.432,0.258,0.454,0.409,0.380,0.210,0.182,north-northeast,2.5,No
2016/07/31,04:20,0.430,0.256,0.453,0.415,0.378,0.209,0.181,north,2.5,No
2016/07/31,04:30,0.435,0.257,0.455,0.411,0.377,0.210,0.182,north,2.0,No
2016/07/31,04:40,0.430,0.257,0.455,0.412,0.381,0.208,0.181,north,2.8,No
2016/07/31,04:50,0.433,0.256,0.452,0.412,0.377,0.210,0.182,north,3.8,No
2016/07/31,05:00,0.434,0.258,0.456,0.412,0.379,0.210,0.182,north,4.4,No
2016/07/31,05:10,0.431,0.256,0.452,0.415,0.380,0.209,0.181,north,4.5,No
2016/07/31,05:20,0.435,0.257,0.456,0.411,0.378,0.209,0.182,north,4.9,No
2016/07/31,05:30,0.433,0.258,0.455,0.411,0.381,0.210,0.181,north-northwest,4.0,No
2016/07/31,05:40,0.430,0.256,0.452,0.413,0.376,0.210,0.182,north,2.7,No
2016/07/31,05:50,0.434,0.258,0.456,0.409,0.378,0.210,0.182,north,2.4,No
2016/07/31,06:00,0.431,0.256,0.454,0.414,0.380,0.210,0.181,north,3.3,No
2016/07/31,06:10,0.431,0.255,0.452,0.413,0.377,0.210,0.182,north,4.8,No
2016/07/31,06:20,0.433,0.257,0.456,0.411,0.377,0.210,0.182,north,5.0,No
2016/07/31,06:30,0.429,0.257,0.453,0.413,0.379,0.209,0.180,north,4.2,No
2016/07/31,06:40,0.430,0.255,0.450,0.412,0.376,0.209,0.181,north,4.2,No
2016/07/31,06:50,0.434,0.256,0.456,0.409,0.375,0.209,0.182,north,4.9,No
2016/07/31,07:00,0.433,0.257,0.454,0.415,0.381,0.210,0.182,north,5.0,No
2016/07/31,07:10,0.428,0.258,0.450,0.413,0.381,0.210,0.180,north,5.3,No
2016/07/31,07:20,0.432,0.255,0.451,0.412,0.377,0.209,0.180,north,4.3,No
2016/07/31,07:30,0.435,0.256,0.450,0.410,0.376,0.210,0.181,north,3.8,No
2016/07/31,07:40,0.433,0.255,0.449,0.409,0.373,0.210,0.181,north,3.1,No
2016/07/31,07:50,0.432,0.255,0.450,0.408,0.375,0.210,0.181,north-northeast,2.6,No
2016/07/31,08:00,0.429,0.255,0.449,0.409,0.377,0.209,0.181,north,2.6,No
2016/07/31,08:10,0.430,0.254,0.455,0.409,0.382,0.209,0.180,north,3.0,Yes
2016/07/31,08:20,0.436,0.254,0.455,0.415,0.380,0.209,0.180,north-northwest,2.8,Yes
2016/07/31,08:30,0.433,0.255,0.454,0.415,0.377,0.210,0.180,north,2.0,No
2016/07/31,08:40,0.428,0.257,0.451,0.413,0.374,0.210,0.180,north-northeast,2.7,Yes
2016/07/31,08:50,0.430,0.256,0.452,0.409,0.376,0.211,0.180,north-northeast,4.2,No
2016/07/31,09:00,0.433,0.255,0.455,0.408,0.378,0.210,0.180,north-northeast,4.0,No
2016/07/31,09:10,0.432,0.254,0.456,0.416,0.381,0.210,0.179,north,2.6,No
2016/07/31,09:20,0.427,0.256,0.451,0.413,0.379,0.210,0.179,north-northeast,4.5,Yes
2016/07/31,09:30,0.428,0.257,0.448,0.412,0.377,0.208,0.179,north,5.0,No
2016/07/31,09:40,0.435,0.256,0.449,0.410,0.377,0.209,0.179,north,4.6,No
2016/07/31,09:50,0.433,0.255,0.455,0.408,0.375,0.210,0.179,north,3.4,No
2016/07/31,10:00,0.430,0.255,0.457,0.407,0.374,0.209,0.179,north,1.6,No
2016/07/31,10:10,0.428,0.253,0.451,0.407,0.377,0.209,0.180,north,3.3,No
2016/07/31,10:20,0.428,0.254,0.450,0.409,0.376,0.209,0.180,north,3.6,No
2016/07/31,10:30,0.429,0.256,0.450,0.409,0.376,0.210,0.180,north-northeast,3.1,No
2016/07/31,10:40,0.428,0.256,0.450,0.411,0.377,0.210,0.181,north-northeast,3.0,No
2016/07/31,10:50,0.430,0.257,0.453,0.412,0.378,0.210,0.180,north-northeast,3.3,No
2016/07/31,11:00,0.430,0.256,0.453,0.412,0.378,0.210,0.182,north-northeast,2.3,No
2016/07/31,11:10,0.430,0.256,0.455,0.416,0.379,0.209,0.181,north,3.3,No
2016/07/31,11:20,0.431,0.257,0.457,0.417,0.378,0.210,0.181,north,3.7,No
2016/07/31,11:30,0.431,0.257,0.456,0.417,0.379,0.211,0.182,north,2.9,No
2016/07/31,11:40,0.433,0.256,0.456,0.417,0.378,0.211,0.181,north-northeast,3.7,No
2016/07/31,11:50,0.430,0.257,0.455,0.419,0.380,0.212,0.183,northeast,3.9,No
2016/07/31,12:00,0.430,0.256,0.456,0.416,0.380,0.212,0.183,north-northeast,2.8,No
2016/07/31,12:10,0.430,0.255,0.455,0.415,0.379,0.211,0.182,north-northeast,3.2,No
2016/07/31,12:20,0.429,0.256,0.455,0.415,0.380,0.211,0.181,north-northeast,3.2,No
2016/07/31,12:30,0.430,0.256,0.452,0.415,0.379,0.210,0.181,north-northeast,4.0,No
2016/07/31,12:40,0.431,0.255,0.452,0.415,0.379,0.210,0.181,north-northeast,3.7,No
2016/07/31,12:50,0.429,0.257,0.451,0.413,0.377,0.210,0.180,north-northeast,3.2,No
2016/07/31,13:00,0.428,0.256,0.452,0.411,0.376,0.211,0.181,north,3.3,No
2016/07/31,13:10,0.431,0.256,0.452,0.412,0.377,0.210,0.181,north-northeast,3.7,No
2016/07/31,13:20,0.429,0.256,0.452,0.412,0.378,0.211,0.180,north-northeast,3.3,No
2016/07/31,13:30,0.429,0.256,0.454,0.412,0.377,0.211,0.181,north-northeast,2.9,No
2016/07/31,13:40,0.428,0.256,0.453,0.412,0.379,0.210,0.181,north,3.0,No
2016/07/31,13:50,0.431,0.256,0.452,0.413,0.377,0.210,0.181,north,4.2,No
2016/07/31,14:00,0.431,0.256,0.453,0.413,0.377,0.210,0.181,north-northeast,3.6,No
2016/07/31,14:10,0.429,0.256,0.452,0.413,0.377,0.210,0.180,north-northeast,3.6,No
2016/07/31,14:20,0.430,0.255,0.453,0.412,0.376,0.209,0.181,north-northeast,3.8,No
2016/07/31,14:30,0.428,0.255,0.452,0.411,0.377,0.209,0.181,north-northeast,3.5,No
2016/07/31,14:40,0.429,0.256,0.453,0.412,0.378,0.209,0.181,north-northeast,3.3,No
2016/07/31,14:50,0.429,0.256,0.452,0.412,0.378,0.209,0.181,north-northeast,4.4,No
2016/07/31,15:00,0.431,0.257,0.454,0.412,0.376,0.210,0.181,north-northeast,4.1,No
2016/07/31,15:10,0.431,0.256,0.455,0.408,0.377,0.210,0.181,north-northeast,4.9,No
2016/07/31,15:20,0.428,0.256,0.450,0.407,0.377,0.210,0.180,north-northeast,6.2,No
2016/07/31,15:30,0.431,0.254,0.451,0.410,0.378,0.209,0.179,north-northeast,4.0,No
2016/07/31,15:40,0.438,0.256,0.449,0.408,0.378,0.211,0.180,north-northeast,4.5,No
2016/07/31,15:50,0.436,0.255,0.451,0.409,0.376,0.211,0.180,north-northeast,4.8,No
2016/07/31,16:00,0.433,0.256,0.451,0.409,0.378,0.209,0.180,north-northeast,5.0,No
2016/07/31,16:10,0.429,0.256,0.451,0.409,0.379,0.210,0.179,north-northeast,5.3,No
2016/07/31,16:20,0.429,0.255,0.449,0.409,0.377,0.209,0.179,north-northeast,4.8,No
2016/07/31,16:30,0.431,0.253,0.449,0.409,0.374,0.209,0.179,north-northeast,5.3,No
2016/07/31,16:40,0.436,0.254,0.450,0.413,0.374,0.207,0.180,north-northeast,6.1,No
2016/07/31,16:50,0.435,0.255,0.449,0.417,0.375,0.208,0.181,north-northeast,5.8,No
2016/07/31,17:00,0.430,0.257,0.449,0.415,0.375,0.209,0.181,north-northeast,5.5,No
2016/07/31,17:10,0.427,0.257,0.454,0.412,0.373,0.208,0.182,north-northeast,4.7,No
2016/07/31,17:20,0.431,0.254,0.458,0.411,0.375,0.208,0.180,north-northeast,5.3,No
2016/07/31,17:30,0.435,0.254,0.455,0.409,0.374,0.210,0.180,north-northeast,4.4,No
2016/07/31,17:40,0.432,0.253,0.451,0.410,0.374,0.208,0.179,north-northeast,5.3,No
2016/07/31,17:50,0.430,0.256,0.451,0.415,0.379,0.209,0.180,north-northeast,4.2,No
2016/07/31,18:00,0.428,0.256,0.449,0.414,0.381,0.210,0.181,north-northeast,4.8,No
2016/07/31,18:10,0.435,0.255,0.452,0.412,0.379,0.211,0.181,north-northeast,4.2,No
2016/07/31,18:20,0.435,0.254,0.456,0.408,0.377,0.209,0.180,north,3.9,No
2016/07/31,18:30,0.431,0.254,0.456,0.408,0.374,0.209,0.178,north-northeast,4.3,Yes
2016/07/31,18:40,0.428,0.255,0.452,0.415,0.376,0.209,0.178,north,6.2,Yes
2016/07/31,18:50,0.430,0.256,0.449,0.417,0.381,0.210,0.181,north,4.9,No
2016/07/31,19:00,0.435,0.256,0.451,0.411,0.378,0.210,0.181,north-northeast,5.4,No
2016/07/31,19:10,0.432,0.255,0.456,0.408,0.376,0.209,0.180,north-northeast,6.0,Yes
2016/07/31,19:20,0.423,0.251,0.452,0.408,0.371,0.208,0.177,north-northeast,4.8,Yes
2016/07/31,19:30,0.421,0.251,0.444,0.409,0.375,0.207,0.177,north-northeast,5.9,Yes
2016/07/31,19:40,0.425,0.251,0.443,0.408,0.376,0.207,0.179,north-northeast,5.5,Yes
2016/07/31,19:50,0.425,0.249,0.447,0.405,0.371,0.207,0.177,north-northeast,6.4,No
2016/07/31,20:00,0.422,0.252,0.449,0.405,0.370,0.205,0.177,north-northeast,6.4,No
2016/07/31,20:10,0.424,0.251,0.444,0.409,0.376,0.206,0.178,north-northeast,5.4,No
2016/07/31,20:20,0.427,0.251,0.443,0.408,0.374,0.208,0.177,north-northeast,5.8,Yes
2016/07/31,20:30,0.423,0.251,0.448,0.405,0.371,0.208,0.177,north-northeast,4.9,No
2016/07/31,20:40,0.422,0.252,0.448,0.408,0.371,0.206,0.177,north-northeast,4.4,No
2016/07/31,20:50,0.426,0.250,0.443,0.408,0.376,0.206,0.179,north,5.9,No
2016/07/31,21:00,0.426,0.250,0.446,0.407,0.373,0.206,0.177,north,5.0,No
2016/07/31,21:10,0.423,0.251,0.450,0.404,0.371,0.206,0.176,north,4.5,No
2016/07/31,21:20,0.419,0.251,0.446,0.409,0.374,0.206,0.178,north,3.3,No
2016/07/31,21:30,0.425,0.250,0.444,0.409,0.376,0.207,0.178,north,3.8,No
2016/07/31,21:40,0.427,0.250,0.445,0.406,0.373,0.207,0.177,north,4.5,No
2016/07/31,21:50,0.423,0.252,0.449,0.405,0.370,0.208,0.177,north,4.8,No
2016/07/31,22:00,0.421,0.251,0.447,0.409,0.374,0.207,0.178,north,4.4,No
2016/07/31,22:10,0.425,0.249,0.444,0.408,0.376,0.207,0.178,north,5.3,No
2016/07/31,22:20,0.427,0.251,0.446,0.406,0.372,0.207,0.176,north,5.7,No
2016/07/31,22:30,0.425,0.253,0.450,0.405,0.369,0.206,0.175,north,5.4,No
2016/07/31,22:40,0.420,0.251,0.446,0.410,0.376,0.205,0.178,north,6.1,No
2016/07/31,22:50,0.428,0.250,0.443,0.408,0.375,0.208,0.178,north,5.8,No
2016/07/31,23:00,0.427,0.252,0.447,0.404,0.373,0.208,0.176,north,7.1,Yes
2016/07/31,23:10,0.423,0.251,0.450,0.404,0.371,0.207,0.177,north,6.5,Yes
2016/07/31,23:20,0.420,0.250,0.446,0.410,0.376,0.206,0.179,north,6.6,Yes
2016/07/31,23:30,0.427,0.249,0.445,0.408,0.374,0.207,0.177,north,6.1,No
2016/07/31,23:40,0.427,0.252,0.447,0.405,0.371,0.207,0.178,north,6.1,No
2016/07/31,23:50,0.422,0.252,0.452,0.408,0.371,0.207,0.178,north,5.6,No
